Regional Weather Roundup
Issued by NWS

Home | Current Version | Previous Version | Text Only | Print | Product List | Glossary Off
Versions: 1 2 3 4 5 6 7 8 9 10 11 12 13 14 15 16 17 18 19 20 21 22 23 24 25 26 27 28 29 30 31 32 33 34 35 36 37 38 39 40 41 42 43 44 45 46 47 48 49 50

000
ASUS43 KLSX 241107
RWRMO

WEATHER SUMMARY FOR MISSOURI
NATIONAL WEATHER SERVICE SPRINGFIELD MO
600 AM CDT THU APR 24 2014

NOTE: "FAIR" INDICATES FEW OR NO CLOUDS BELOW 12,000 FEET WITH NO
       SIGNIFICANT WEATHER AND/OR OBSTRUCTIONS TO VISIBILITY.
       CURRENT SKY AND/OR WEATHER CONDITIONS ARE NOT AVAILABLE FOR
       CHILLICOTHE AND FARMINGTON.

MOZ001>031-035>038-043-044-053-054-241200-
...NORTHERN AND WESTERN MISSOURI...

CITY           SKY/WX    TMP DP  RH WIND       PRES   REMARKS
KANSAS CTY INT CLOUDY    64  49  57 SE13      29.64F
KANSAS C DTWN  CLOUDY    64  52  64 E3        29.65S
LEE`S SUMMIT   LGT RAIN  64  48  56 CALM      29.67R
ST JOSEPH      CLOUDY    65  52  62 SE14      29.62F
CHILLICOTHE      N/A     58  45  62 E6        29.71R
KIRKSVILLE     CLOUDY    54  37  52 SE20      29.72F

$$
MOZ066>068-077>081-088>096-101>105-241200-
...SOUTHWEST MISSOURI...

CITY           SKY/WX    TMP DP  RH WIND       PRES   REMARKS
SPRINGFIELD    CLOUDY    62  41  46 SE21      29.73R
JOPLIN         TSTM      64  52  64 SE8       29.67F

$$
MOZ032>034-039>042-045>050-055>058-069>072-241200-
...CENTRAL MISSOURI...

CITY           SKY/WX    TMP DP  RH WIND       PRES   REMARKS
COLUMBIA       MOCLDY    57  37  47 S15       29.77F
JEFFERSON CITY MOCLDY    60  36  40 SE14      29.76F
ROLLA          PTCLDY    56  33  42 SE16G24   29.79F
SEDALIA        CLOUDY    62  39  42 S22G28    29.70F
WHITEMAN AFB   CLOUDY    63  35  35 S21G32    29.64F
OSAGE BEACH    CLOUDY    59  36  41 S12G18    29.78R

$$
MOZ051-052-059>065-241200-
...EAST CENTRAL MISSOURI...

CITY           SKY/WX    TMP DP  RH WIND       PRES   REMARKS
ST LOUIS INTL  MOCLDY    53  34  48 SE9       29.88F
SPIRIT OF STL  MOCLDY    53  33  46 VRB3      29.86F
ST CHARLES     PTCLDY    48  37  65 E9        29.88S

$$
MOZ072>076-082>087-097>100-106>115-241200-
...SOUTH CENTRAL AND SOUTHEAST MISSOURI...

CITY           SKY/WX    TMP DP  RH WIND       PRES   REMARKS
CAPE GIRARDEAU MOCLDY    52  37  56 SE9       29.92R
FARMINGTON     MOCLDY    50  34  53 SE5       29.91S
POPLAR BLUFF   MOCLDY    50  40  68 CALM      29.89F
WEST PLAINS    MOCLDY    54  37  52 SE7       29.86F

$$



USA.gov is the U.S. government's official web portal to all federal, state and local government web resources and services.